Location: Igon
(43.1667°N, 0.2333°W)
Time: 15:18:23
(UTC+00:00)

Aureole 2 Rocket - Pass Details

Date: 29 November 2020
Orbit: 289 x 389 km, 73.9° (Epoch: 23 January)

Event Time Altitude Azimuth Distance (km) Brightness Sun altitude
Rises 05:19:59 0° 177° (S) 1,960 5.8 -19.7°
Reaches altitude 10° 05:22:03 10° 162° (SSE) 1,140 4.8 -19.4°
Maximum altitude 05:24:07 24° 104° (ESE) 667 4.1 -19.0°
Drops below altitude 10° 05:26:12 10° 47° (NE) 1,149 4.9 -18.6°
Sets 05:28:16 0° 33° (NNE) 1,980 5.9 -18.3°
